Location: Bergen
(60.3910°N, 5.3250°E)
Time: 02:48:07
(UTC+02:00)

ISS - Pass Details

Date: 29 September 2021
Orbit: 417 x 423 km, 51.6° (Epoch: 22 October)

Event Time Altitude Azimuth Distance (km) Brightness Sun altitude
Rises 20:11:45 0° 254° (WSW) 2,365 1.4 -7.6°
Reaches altitude 10° 20:14:19 10° 234° (SW) 1,501 -0.2 -8.0°
Maximum altitude 20:16:37 17° 190° (S) 1,131 -1.5 -8.2°
Drops below altitude 10° 20:18:56 10° 147° (SSE) 1,502 -1.3 -8.5°
Enters shadow 20:19:45 - 138° (SE) 1,751 -1.1 -8.6°
